Location: Newark
(48.8604°N, 2.3376°E)
Time: 23:22:32
(UTC+00:00)

XW-2C - Pass Details

Date: 08 December 2021
Orbit: 503 x 524 km, 97.5° (Epoch: 19 January)

Event Time Altitude Azimuth Distance (km) Brightness Sun altitude
Rises 05:49:40 0° 15° (NNE) 2,673 ? -15.8°
Reaches altitude 10° 05:51:48 10° 18° (NNE) 1,779 ? -15.5°
Maximum altitude 05:55:37 68° 101° (ESE) 570 ? -14.9°
Drops below altitude 10° 05:59:25 10° 186° (S) 1,761 ? -14.3°
Sets 06:01:31 0° 189° (S) 2,642 ? -13.9°
